Wind_Speed
6 6 6 5 4 3 3 3 2 2 2 1 1 3 5 7 8 9 10 11 12 14 15 15 15 15 15 14 12 11 10 10 9 11 13 14 14 13 12 11 9 9 7 6 4 2 3 4 6 8 8 7 6 6 8 9 10 10 5 10 13 15 18 18 17 15 13 13 15 13 12 10 9 10 9 5 5 4 4 5 10 10 7 7 7 8 9 10
7 6 6 5 5 4 3 3 2 2 2 1 0 1 3 5 6 8 9 10 11 12 13 14 15 15 15 14 13 12 11 10 10 11 12 12 13 14 13 12 11 10 9 8 6 4 4 5 6 7 5 4 5 6 7 8 9 10 9 6 12 14 16 17 17 15 13 12 13 12 11 9 7 7 7 6 5 4 5 8 12 9 5 8 9 9 10 11
7 7 6 5 5 5 4 3 3 2 2 1 1 0 1 3 5 6 7 8 10 11 11 13 14 15 15 14 14 13 12 11 11 12 12 12 13 13 13 13 13 12 12 10 9 7 5 6 7 5 3 3 4 5 5 6 8 8 10 7 8 14 15 16 18 15 13 13 13 12 11 10 9 7 6 6 6 5 6 7 7 4 4 9 11 11 11 11
8 7 6 5 5 5 5 4 3 3 2 1 1 0 1 1 3 4 6 7 8 9 10 11 12 13 14 15 14 14 13 13 12 12 12 12 12 12 12 14 15 14 14 12 10 8 5 6 6 4 3 4 4 4 4 5 7 7 7 8 4 11 16 18 19 17 14 14 14 12 11 11 11 9 6 7 7 7 8 7 4 2 4 10 12 12 11 11
8 8 7 6 5 5 5 4 4 3 2 2 1 1 1 1 2 2 4 5 6 7 9 10 11 12 13 14 14 14 13 13 13 13 13 12 12 11 12 14 15 15 14 12 10 8 6 6 4 3 4 3 3 2 4 4 5 6 5 5 4 5 16 20 19 18 16 15 15 13 11 11 11 9 9 9 9 9 10 9 7 6 8 10 10 10 10 10
9 8 8 7 6 5 5 4 4 4 3 2 1 1 1 1 2 2 2 3 4 6 7 8 9 11 12 13 14 14 14 13 14 15 13 13 13 12 13 14 15 14 14 13 11 9 7 4 3 4 5 3 1 1 3 4 5 5 5 3 3 1 13 21 21 20 17 16 16 14 12 11 10 11 12 11 10 9 11 10 8 11 12 10 9 9 9 9
9 9 8 8 7 6 5 5 4 4 4 3 2 1 1 1 2 2 2 3 3 4 5 6 7 9 10 11 12 13 14 14 15 16 15 14 14 14 14 14 14 14 15 14 12 10 7 4 4 5 4 2 1 2 3 4 5 5 6 6 5 2 11 21 24 22 18 17 17 15 13 12 10 11 11 10 10 8 10 12 11 13 13 11 9 9 9 9
9 9 8 8 7 7 6 6 5 4 4 3 3 2 1 1 1 2 2 3 3 3 3 4 5 7 8 9 10 13 15 15 15 16 16 16 16 15 15 14 14 14 16 15 13 12 7 5 5 4 2 2 0 3 4 6 6 6 7 8 7 4 10 22 27 24 21 19 18 16 14 12 11 11 9 8 9 8 8 12 13 14 13 11 10 9 8 7
9 9 8 8 7 7 7 6 6 5 4 4 3 3 2 1 1 1 2 3 3 3 3 4 4 5 6 7 9 12 14 15 15 15 16 16 16 16 16 15 15 15 16 16 15 13 8 6 6 4 2 2 1 3 5 6 7 7 8 9 6 3 9 21 29 26 22 21 19 17 15 12 11 11 9 9 9 9 10 11 13 13 12 11 10 9 8 6
9 9 9 8 7 7 7 6 6 5 5 4 4 3 3 2 0 1 2 3 3 4 4 4 4 4 4 5 8 12 14 14 14 14 15 15 15 16 16 16 15 16 17 17 16 13 10 10 9 6 3 2 1 2 4 6 7 8 8 7 3 3 7 18 30 29 24 22 19 17 15 13 11 10 10 10 11 11 12 11 11 12 11 10 9 8 8 6
10 9 9 8 8 8 7 6 5 5 5 4 4 3 3 2 1 0 1 2 3 4 4 4 4 4 4 4 6 10 12 12 13 12 13 14 13 14 15 16 15 17 18 18 16 14 12 14 11 8 5 4 3 3 4 5 7 8 8 4 2 4 8 18 28 28 23 21 19 17 14 12 12 11 11 10 11 12 13 12 10 10 11 10 8 8 7 6
11 10 10 9 8 8 7 6 5 4 4 4 4 3 3 2 2 1 1 1 2 4 4 5 5 5 5 4 4 7 9 11 12 11 12 12 12 13 14 15 15 16 18 19 19 16 14 14 12 9 6 4 4 4 4 5 7 6 5 1 3 4 9 20 27 25 22 21 20 18 14 13 13 12 12 12 11 11 12 12 9 8 9 9 8 7 7 6
11 10 10 9 8 8 7 6 5 4 4 4 4 3 3 2 2 2 1 0 1 3 4 5 6 6 5 4 5 7 8 10 12 12 12 12 12 12 13 14 15 15 17 19 21 20 16 15 13 10 7 5 4 4 4 5 6 4 2 1 3 5 10 22 28 25 23 22 21 18 15 15 15 12 13 13 12 11 10 11 9 6 7 8 8 6 6 6
10 10 10 9 8 8 7 6 5 5 5 4 4 3 3 3 3 3 2 2 0 1 3 4 5 6 5 5 6 8 10 11 14 15 14 12 11 11 11 13 15 15 17 19 21 22 19 15 13 11 9 7 5 4 3 4 5 2 2 2 4 7 12 23 28 26 25 23 21 19 16 17 15 13 13 13 12 10 8 9 9 6 5 7 8 6 6 7
11 11 10 9 9 8 7 6 5 5 5 4 4 4 4 4 4 4 4 3 2 1 1 2 4 4 4 5 6 8 10 12 14 16 16 15 13 11 11 12 14 15 17 19 21 22 19 15 14 12 10 8 6 4 2 3 3 2 2 1 5 10 15 23 27 26 24 22 20 18 16 17 16 14 14 12 10 9 8 8 8 6 4 6 8 7 7 7
11 11 10 10 9 9 8 7 6 6 6 6 6 6 5 5 6 6 5 5 4 3 2 2 4 4 4 4 5 6 8 11 12 13 14 16 16 13 11 11 13 16 17 20 23 22 20 16 15 13 11 9 7 5 2 3 2 2 1 3 5 11 18 20 23 24 23 21 19 18 16 15 16 16 13 11 9 9 10 10 8 6 4 6 8 8 8 8
11 10 10 10 10 10 10 10 10 9 9 9 8 8 7 6 6 6 6 5 5 5 5 4 4 5 4 4 4 3 6 9 10 11 12 14 16 15 13 11 14 16 18 22 24 22 20 17 15 13 11 10 8 6 2 3 4 4 1 4 4 10 17 17 20 23 22 20 17 17 17 15 15 15 13 11 9 10 11 11 9 6 4 6 9 9 8 7
10 10 10 10 11 12 13 14 13 13 12 12 11 11 10 9 8 7 5 4 4 6 6 5 4 5 5 4 3 2 3 5 7 10 11 11 13 14 13 12 14 17 19 24 25 21 19 17 15 14 13 12 9 6 3 4 5 6 2 5 5 9 14 14 18 21 20 18 16 17 19 17 14 14 14 12 10 11 12 11 9 6 5 6 9 10 8 8
9 10 10 12 14 15 17 17 16 15 14 13 13 12 12 11 10 10 8 5 4 4 4 3 3 4 4 3 3 2 2 2 5 9 11 10 10 13 13 13 15 17 19 24 25 20 19 17 17 17 15 13 8 5 5 3 5 4 2 4 6 8 11 12 16 19 18 17 17 17 20 20 17 13 13 14 12 12 13 12 10 8 6 6 8 10 10 10
8 9 11 13 16 17 17 17 16 15 14 13 12 11 9 8 9 9 9 7 5 4 4 4 5 4 3 2 2 3 2 2 4 8 11 10 9 11 12 13 15 17 20 25 25 21 19 18 19 19 14 9 7 5 5 1 4 2 1 2 5 7 10 12 15 17 17 16 15 17 19 20 19 15 12 14 14 15 15 13 12 10 8 7 8 11 14 14
7 9 12 14 15 16 16 16 15 14 13 13 11 10 9 9 9 9 9 8 8 6 5 6 4 4 3 3 3 3 1 1 3 7 10 9 8 8 10 13 15 17 21 25 25 22 20 19 19 16 11 8 8 6 5 3 1 4 2 2 4 6 10 13 14 15 15 15 15 18 19 18 18 17 14 15 17 18 17 14 12 10 9 8 9 13 17 17
6 9 11 13 14 14 14 14 14 13 12 12 11 10 10 11 10 10 9 9 9 9 7 6 5 5 6 6 4 3 1 1 3 6 9 8 7 7 7 12 15 16 22 25 24 23 21 20 17 13 12 11 9 7 8 8 5 1 2 2 3 6 9 12 13 14 13 14 16 18 19 18 18 18 17 16 17 19 18 15 12 10 9 10 10 14 19 19
6 8 10 11 12 12 12 12 12 11 11 11 11 10 10 10 9 9 9 9 9 9 8 7 6 5 6 6 6 5 3 0 1 4 7 7 7 7 7 11 15 16 21 24 23 22 17 15 15 13 14 14 10 9 10 11 10 8 5 3 3 5 7 10 13 14 12 13 14 14 15 17 19 20 19 17 18 20 20 18 15 12 11 10 10 13 18 19
5 7 8 9 9 10 10 10 10 10 10 10 10 9 9 9 9 8 7 8 8 8 7 5 5 5 6 6 6 6 6 5 3 1 4 6 6 7 6 9 13 15 19 24 24 22 15 10 12 15 16 15 13 11 11 12 12 12 9 7 6 5 5 9 11 12 11 12 14 11 10 15 19 20 19 19 19 21 22 21 19 16 14 13 13 15 18 19
5 6 7 7 7 7 8 8 9 9 9 9 9 8 7 8 8 8 7 7 7 7 6 5 4 4 6 6 6 7 6 6 4 3 2 6 5 6 6 7 10 13 17 23 24 22 15 8 10 15 17 15 13 13 11 12 14 12 10 10 9 8 8 9 10 11 11 11 14 12 8 11 17 20 19 19 20 21 22 23 22 19 17 18 18 17 19 19
5 5 5 5 5 5 6 7 8 8 8 8 8 7 6 6 6 7 9 9 9 9 7 6 5 5 6 5 6 6 5 4 4 4 2 5 4 5 6 5 7 10 15 20 22 21 18 13 10 13 17 16 14 14 12 14 17 14 11 10 8 8 8 9 10 9 9 8 12 15 11 8 13 18 19 20 20 21 23 24 24 22 20 20 20 19 19 20
6 6 4 4 3 4 5 6 6 7 7 7 6 6 5 5 5 5 6 7 8 10 9 7 7 8 7 5 5 4 4 5 3 2 2 1 3 4 4 4 6 8 11 16 17 15 17 18 14 13 15 17 17 17 15 15 16 14 8 4 4 6 8 8 9 9 9 7 8 13 15 11 13 16 17 20 21 21 23 25 25 25 23 22 22 21 20 20
6 6 5 4 3 3 4 5 5 6 6 6 6 5 4 4 5 5 5 3 4 7 7 7 7 7 5 5 5 4 4 4 3 1 1 1 3 3 2 2 5 5 8 12 10 6 7 14 16 16 16 18 19 18 16 16 14 12 10 6 4 4 7 7 8 9 9 8 6 9 12 9 12 15 12 14 21 24 25 26 26 26 25 24 24 23 21 19
7 7 6 5 4 3 3 4 4 5 4 4 5 5 3 3 3 5 4 2 4 5 4 5 5 3 2 2 3 2 3 3 3 2 0 1 3 3 2 5 6 5 5 7 8 5 4 8 13 16 19 19 18 16 15 18 18 15 15 13 6 3 5 7 8 8 8 8 7 9 11 8 9 14 11 12 16 16 16 19 25 27 26 25 24 24 23 20
8 9 8 7 5 4 2 2 3 3 3 3 4 5 5 3 2 3 3 2 6 6 4 3 2 1 0 1 2 1 1 1 1 1 1 2 3 2 3 4 3 2 4 5 6 7 7 9 10 13 17 17 16 13 12 16 21 17 14 13 6 1 3 6 8 7 5 6 8 9 11 9 6 10 9 11 10 4 3 8 16 22 27 28 26 25 24 23
9 10 10 9 7 4 2 1 1 1 1 2 1 3 4 4 4 4 2 3 6 7 5 3 2 1 2 3 3 2 2 2 1 1 0 2 4 4 4 4 3 3 5 6 5 7 9 11 11 12 14 14 13 12 8 11 19 18 13 11 6 3 4 4 5 5 4 3 3 5 8 9 9 6 2 5 7 8 9 10 11 13 19 26 28 27 26 24
9 11 11 10 8 5 3 1 0 1 0 2 1 2 1 2 4 5 3 3 5 6 6 5 4 2 2 1 1 1 2 2 1 0 2 3 4 4 4 5 4 4 4 5 5 6 9 10 11 12 13 15 13 10 10 13 18 19 14 11 7 4 3 3 3 4 5 4 2 2 5 9 14 12 7 9 11 13 15 17 17 15 13 17 25 28 27 26
9 11 12 12 10 7 5 3 2 2 1 1 2 2 2 1 3 4 5 4 5 6 6 6 5 3 1 2 2 3 2 1 0 1 2 3 3 3 3 4 6 6 5 5 5 4 5 10 13 14 14 16 15 13 15 18 20 23 18 14 10 4 3 3 3 3 3 5 6 5 5 7 12 12 10 9 8 8 11 15 18 16 12 11 18 26 28 27
9 11 13 14 12 9 7 5 3 3 2 1 2 2 2 2 3 3 5 6 5 6 5 5 5 3 3 4 4 4 3 2 2 1 2 2 3 2 2 2 5 6 5 4 4 4 2 8 12 14 13 13 15 15 14 14 20 26 22 16 14 9 5 3 4 3 1 3 4 6 5 5 5 5 5 4 4 7 8 10 11 11 10 9 14 22 28 29
9 11 14 15 14 12 9 6 4 3 3 2 2 3 3 4 3 3 4 5 5 5 4 4 4 2 4 4 4 3 3 3 3 2 3 5 6 6 7 7 5 3 1 0 0 3 2 3 7 11 11 9 12 13 12 13 19 26 24 18 15 14 9 3 3 5 4 5 5 7 8 7 6 6 7 8 10 11 10 8 8 10 11 12 16 22 27 29
9 11 14 16 16 14 11 7 5 4 4 3 2 2 4 5 3 3 4 4 5 6 5 2 2 2 4 4 4 3 3 3 5 5 7 8 7 7 8 9 9 9 7 4 3 4 3 3 4 6 10 7 6 9 12 13 16 21 22 20 18 17 12 3 3 5 5 3 4 7 8 8 7 8 9 10 10 9 8 8 8 10 13 15 17 20 24 27
9 11 14 16 17 16 13 9 6 5 5 5 4 3 5 5 4 4 5 5 4 5 5 3 2 3 3 3 3 3 3 5 7 9 10 8 5 6 7 8 9 9 8 5 4 6 5 3 4 1 8 10 6 8 10 12 15 16 20 23 21 16 11 5 3 4 4 3 3 6 8 7 6 6 7 10 10 8 5 6 7 10 14 16 16 17 19 23
9 11 13 17 18 17 14 11 7 6 5 5 5 4 4 4 4 4 4 4 3 2 4 4 4 4 3 2 2 4 4 7 10 10 10 7 5 6 6 7 7 7 7 7 6 8 9 3 3 3 6 12 10 11 12 15 17 15 15 18 17 13 9 7 5 3 3 3 1 3 6 6 7 8 6 6 7 4 2 3 6 8 12 15 15 14 15 19
9 11 13 16 18 17 16 13 9 7 7 6 6 5 4 4 2 2 3 3 4 2 2 3 3 3 3 3 1 4 5 8 10 10 8 7 6 4 3 4 4 6 6 7 7 8 9 6 3 2 6 10 12 14 16 18 17 13 12 14 17 15 11 9 7 5 4 3 1 2 2 2 6 7 4 2 1 2 0 2 5 7 10 13 14 13 13 16
9 11 13 15 17 18 17 15 11 8 7 7 8 7 5 4 3 1 1 2 3 3 2 3 3 2 1 2 1 3 5 7 10 10 9 7 6 4 2 1 2 4 5 6 6 6 7 8 6 4 8 8 10 14 16 17 14 10 12 16 19 18 13 10 10 9 5 1 2 2 1 2 4 4 4 3 1 2 1 2 4 5 8 11 12 12 11 12
10 11 12 14 16 17 18 16 13 10 9 8 9 9 8 7 5 3 2 1 0 1 1 2 3 2 1 1 2 3 6 8 9 10 10 9 7 5 3 2 2 3 4 5 4 4 5 7 7 3 8 6 8 12 14 15 13 10 11 15 19 19 13 8 8 10 9 4 2 3 1 1 5 5 4 3 1 3 2 3 4 5 6 8 10 11 11 12
10 10 12 14 15 16 17 16 14 12 10 9 10 10 9 8 8 5 3 2 2 2 2 2 3 2 1 2 3 5 7 8 8 8 8 8 7 4 3 2 2 3 5 6 6 5 4 5 6 3 7 6 7 10 14 16 16 13 11 11 14 17 15 9 6 8 12 10 5 3 1 3 10 8 4 4 2 4 4 4 5 5 6 7 8 9 10 11
10 11 12 13 14 15 16 17 15 14 12 10 10 10 9 10 10 7 5 4 4 5 4 5 4 3 1 2 3 5 6 6 7 8 7 7 6 3 2 1 3 4 5 6 6 5 4 3 3 3 6 6 6 6 11 16 16 14 12 13 13 14 16 15 9 5 9 10 7 3 1 3 10 10 5 3 3 5 5 6 6 6 5 6 7 9 10 11
11 13 13 13 13 14 15 16 15 15 14 12 11 10 10 12 12 10 7 5 4 5 6 6 6 5 4 2 3 4 5 4 5 7 7 6 5 3 1 1 4 5 5 5 5 5 4 3 3 1 3 4 4 4 6 9 10 8 7 10 12 12 15 17 14 8 7 8 7 5 2 4 8 8 2 3 5 7 7 6 6 5 4 2 4 6 9 10
13 14 14 14 13 14 15 15 15 15 15 14 12 10 10 12 13 12 9 6 4 6 6 6 6 6 6 5 4 5 6 5 5 7 7 5 4 2 0 2 4 4 5 5 4 2 4 6 6 5 3 3 3 2 1 2 4 4 1 3 7 10 13 16 15 11 9 9 8 6 3 5 6 3 3 5 6 7 8 7 6 4 1 2 3 4 4 7
13 15 15 15 15 15 15 15 16 16 15 15 13 11 10 11 12 12 11 8 6 7 6 6 7 7 7 6 5 5 6 7 7 7 7 6 4 2 1 2 3 3 4 5 4 2 5 8 7 6 4 1 1 1 1 3 5 4 4 2 3 7 11 14 14 11 11 11 11 10 8 6 5 3 5 6 6 6 8 8 6 4 1 1 3 3 3 2
11 14 15 15 15 15 16 16 16 16 15 15 13 11 10 11 12 13 12 10 9 8 7 7 8 7 7 8 7 5 6 6 6 7 7 6 5 3 2 1 1 1 2 3 2 1 4 9 10 7 4 4 5 7 7 7 8 8 8 7 3 2 7 12 14 12 10 10 11 12 11 7 4 4 5 5 5 6 7 7 6 4 2 2 4 2 3 5
9 13 16 17 15 14 15 17 17 17 16 15 14 12 11 12 14 13 12 11 10 10 9 9 9 8 8 8 8 7 7 6 6 7 7 7 6 5 4 2 2 2 1 1 1 1 4 8 11 9 8 9 10 10 9 9 9 11 12 12 10 6 2 6 11 12 12 11 12 13 12 9 7 6 6 6 6 6 6 5 5 5 2 1 0 2 3 7
9 12 16 19 19 16 15 16 17 17 17 17 15 13 12 14 16 14 13 13 13 12 12 11 9 9 9 9 8 7 7 6 7 8 8 7 7 6 6 4 3 2 1 0 1 1 3 7 10 11 13 14 12 10 6 5 6 8 11 13 13 12 9 5 3 9 12 11 11 12 12 10 8 8 8 8 7 7 5 5 8 7 4 4 6 5 5 6
10 11 13 17 20 20 19 17 16 16 17 17 16 14 13 15 16 15 15 15 14 14 13 11 8 8 9 9 8 7 7 7 7 7 8 8 8 8 8 6 4 4 3 2 1 0 2 7 9 9 12 14 13 10 6 2 2 6 8 10 12 12 12 11 7 2 6 6 7 9 10 11 11 10 10 10 9 8 8 8 10 8 5 6 7 6 6 6
12 12 12 14 17 20 21 20 19 17 16 17 16 15 14 16 16 16 16 16 15 14 12 10 9 8 8 7 7 7 7 8 8 7 8 9 9 9 9 7 6 6 5 4 2 1 1 4 8 10 11 11 12 11 8 6 3 3 4 5 7 9 10 11 10 6 1 4 8 8 9 12 13 12 12 12 11 10 10 10 11 9 7 6 6 6 6 7
13 13 13 13 15 17 20 21 22 21 19 17 17 15 15 17 17 16 16 16 16 15 13 11 10 10 9 8 7 7 8 8 8 6 7 9 8 7 7 6 6 6 6 5 3 3 3 4 7 11 11 11 14 12 10 9 7 6 5 5 5 4 6 7 7 6 5 4 8 8 9 12 13 13 13 12 10 9 10 10 11 10 8 7 7 6 6 6
Wind_Direction
43 32 26 20 4 342 330 327 332 345 358 349 255 236 236 235 232 229 227 228 229 230 232 233 231 228 227 226 225 221 216 214 210 210 213 214 215 212 209 206 202 202 199 199 208 184 115 101 125 128 102 86 85 83 77 71 65 56 88 181 186 188 187 181 183 183 179 167 149 144 145 144 139 134 135 107 71 102 140 154 140 140 160 163 166 171 149 133
49 37 26 21 17 8 359 353 343 340 351 360 341 234 230 232 232 229 227 226 227 228 229 230 231 229 227 224 223 220 217 213 209 212 215 214 215 212 208 202 199 200 195 192 201 192 141 122 135 135 101 78 83 90 90 75 66 59 66 148 186 190 192 187 187 187 183 175 158 149 147 146 141 134 129 101 67 88 129 145 145 146 161 159 161 163 147 137
48 42 32 19 13 8 10 13 8 5 357 360 14 257 224 227 229 229 227 225 226 227 227 227 228 228 227 224 220 218 216 212 210 213 213 214 216 212 207 203 197 197 196 192 194 194 169 146 140 135 111 102 104 93 93 78 64 59 61 83 173 192 196 192 192 191 186 183 171 161 157 153 152 148 127 95 70 86 121 133 135 134 149 152 155 156 148 143
43 39 34 25 14 4 4 10 15 22 22 19 33 87 187 214 222 229 231 228 226 227 227 226 226 226 226 224 219 215 214 212 211 210 211 214 216 210 207 206 201 199 199 199 196 195 183 154 136 127 128 116 112 79 60 66 57 52 58 65 125 192 200 196 195 195 189 187 182 174 169 160 157 152 120 84 69 92 119 125 124 88 136 149 151 153 150 144
39 34 32 30 26 14 6 7 13 22 30 35 42 74 150 175 193 216 229 232 229 227 226 225 225 225 225 223 218 212 209 211 212 208 208 211 211 206 206 208 206 202 201 202 197 189 179 160 136 133 144 121 104 61 22 32 39 38 44 50 64 181 202 201 198 198 194 190 187 186 180 164 157 145 114 90 82 107 119 122 143 133 128 146 150 152 148 138
35 33 33 35 36 30 19 14 12 15 21 30 41 66 138 161 169 186 206 221 226 225 225 223 223 224 224 223 218 211 205 208 212 208 206 206 206 203 204 209 208 204 202 201 194 183 180 167 136 146 155 147 107 40 353 7 10 15 18 4 10 161 200 203 202 200 199 194 191 191 185 173 160 141 125 107 93 114 128 124 140 140 134 145 153 148 141 136
31 32 34 37 39 37 31 26 20 16 14 17 27 46 84 148 166 173 188 208 217 220 222 222 222 221 222 222 218 210 204 206 210 208 205 204 203 201 204 208 204 202 202 201 191 178 178 166 153 163 163 153 78 349 337 345 345 353 355 338 319 269 198 201 204 202 201 198 194 192 189 182 161 141 135 123 103 103 132 138 140 143 141 146 153 151 145 145
27 29 33 34 35 36 34 30 26 21 18 15 16 27 52 98 157 172 184 198 208 213 217 221 222 220 220 219 214 208 205 205 208 206 204 203 202 201 204 204 201 198 199 199 188 173 169 169 177 178 159 159 248 332 335 330 328 342 342 331 312 256 201 198 201 203 201 198 194 191 191 186 164 151 150 141 125 104 120 144 145 144 145 146 155 160 154 148
26 24 25 26 26 29 30 28 27 25 24 20 15 16 26 46 131 176 187 193 198 201 207 217 219 218 217 215 210 205 205 207 207 206 204 204 202 201 203 202 199 195 195 198 187 171 162 173 197 196 163 193 250 314 330 330 325 334 335 328 317 243 202 195 196 198 200 197 193 191 190 187 175 168 167 155 143 120 114 137 148 146 144 148 157 163 160 145
20 16 14 14 14 19 24 25 26 28 29 26 20 17 14 13 31 181 193 196 197 195 196 205 211 214 212 208 207 204 205 207 206 207 206 205 204 203 205 203 199 194 193 196 184 167 165 182 203 211 190 213 244 316 324 327 323 328 332 329 313 226 204 193 192 192 195 197 195 194 191 187 184 177 170 156 143 128 115 125 147 150 145 148 158 166 165 142
10 6 2 2 4 8 14 17 22 29 33 31 27 22 12 3 357 310 219 206 204 202 194 192 197 202 202 200 206 203 203 204 203 207 209 209 208 205 208 205 202 199 194 190 179 169 178 188 201 211 208 228 248 303 318 322 325 329 329 319 234 220 187 183 189 187 188 195 197 198 194 190 190 178 168 158 142 132 122 120 139 152 148 148 154 167 169 141
2 359 357 356 357 1 4 8 16 27 35 38 38 34 23 11 6 350 297 232 213 211 204 195 193 195 197 196 197 193 194 199 200 204 209 210 208 206 208 206 205 204 196 187 179 179 186 190 202 209 209 229 249 294 314 327 328 329 332 313 196 207 168 174 185 181 181 194 199 198 196 199 199 182 172 168 152 142 136 130 136 151 154 151 151 162 166 146
2 1 360 358 359 3 6 7 13 26 39 43 48 53 44 32 23 15 12 333 221 213 209 203 198 194 188 172 163 168 179 192 197 200 205 206 206 205 205 205 206 203 198 189 180 182 187 191 204 208 206 225 241 278 305 335 328 322 357 55 172 187 167 171 180 178 179 193 201 198 196 203 204 187 180 179 167 155 150 145 143 152 159 155 154 158 162 156
7 5 3 3 5 10 12 12 18 31 45 50 57 68 66 62 53 42 41 36 41 205 208 206 203 195 181 163 157 164 173 187 198 201 204 206 205 204 203 204 204 199 197 193 184 183 185 189 203 206 206 221 236 259 295 338 331 347 47 64 161 172 167 171 178 180 181 191 200 200 203 207 205 193 185 183 174 163 157 158 154 158 166 162 161 159 163 171
9 6 7 10 13 15 17 21 31 44 55 60 63 69 68 73 74 64 56 48 50 89 173 188 188 178 169 160 159 172 180 188 199 203 207 212 212 207 205 204 202 197 193 192 189 185 184 189 200 206 209 216 232 248 298 337 326 6 47 97 160 164 167 174 181 183 185 191 195 198 209 213 209 201 193 187 182 171 167 166 161 165 171 166 167 167 176 184
10 12 16 21 22 23 28 39 53 61 65 64 63 65 68 80 84 77 69 61 60 70 90 130 149 141 134 144 152 172 189 199 204 202 206 214 216 213 210 206 200 196 190 188 187 185 185 190 197 204 209 215 231 235 264 318 300 336 14 158 167 167 169 176 183 187 188 191 193 197 208 213 209 206 202 197 194 183 174 168 161 166 171 164 168 174 187 193
14 20 25 29 33 39 48 56 63 63 66 67 64 61 61 69 74 74 75 77 78 83 91 103 115 115 116 135 145 156 187 205 209 202 203 212 215 214 213 209 201 195 187 184 186 187 188 192 194 202 208 212 225 219 221 333 316 324 343 161 163 173 177 178 183 191 191 190 196 205 211 213 210 212 210 204 200 194 181 166 152 154 161 161 171 180 190 197
20 27 34 45 55 63 66 67 67 67 70 73 70 65 61 61 61 61 68 87 102 99 97 95 99 111 107 104 99 108 178 201 207 202 201 208 211 210 210 209 204 196 186 184 189 190 192 194 195 202 209 210 216 204 184 355 336 315 300 172 171 171 181 183 183 190 193 192 200 212 220 220 215 218 217 208 200 196 185 168 155 162 173 164 173 183 187 190
27 40 52 65 72 74 72 71 71 72 75 75 70 64 59 57 56 56 59 76 110 116 109 89 98 129 117 86 69 72 112 158 184 191 194 201 203 205 207 205 202 197 188 187 192 194 194 196 198 204 209 209 212 194 192 337 351 314 288 183 181 171 175 183 183 187 191 195 202 213 223 223 220 221 218 211 203 195 188 179 171 174 186 179 176 181 180 180
42 59 68 74 75 74 71 70 71 73 75 73 69 64 58 56 56 57 57 66 88 106 130 115 95 108 115 106 95 84 90 126 162 181 187 190 194 199 204 202 200 197 189 189 195 198 197 201 206 207 206 209 215 190 186 310 26 42 327 206 193 184 180 184 185 187 191 195 200 210 222 228 227 226 222 216 208 200 195 191 185 180 184 185 182 180 174 174
62 75 76 76 74 73 71 71 73 74 75 72 68 66 61 56 55 57 58 65 73 75 116 135 105 86 91 105 121 107 102 150 165 180 183 182 186 195 201 202 198 194 190 190 197 202 202 208 214 210 205 212 219 201 186 221 80 62 12 242 204 196 185 184 188 190 195 201 201 207 222 233 232 229 225 219 215 209 204 201 194 185 185 189 188 181 173 172
80 86 84 80 76 74 73 73 73 73 72 68 63 58 53 50 50 55 63 70 71 68 82 110 105 90 83 88 106 105 101 191 192 188 186 182 184 191 197 200 196 194 193 193 199 204 207 215 216 207 208 215 217 211 212 222 225 254 332 298 228 212 190 183 189 195 203 209 204 206 220 232 234 233 229 223 221 216 212 210 203 193 190 189 186 181 178 178
98 96 91 85 78 76 73 71 70 66 65 62 58 53 48 50 51 56 70 75 73 69 73 90 100 90 81 82 84 76 60 69 194 197 194 188 191 194 194 198 198 198 197 196 200 204 210 221 216 204 210 219 219 219 225 231 239 248 266 278 253 233 209 199 197 199 207 213 211 213 225 232 234 237 235 229 223 217 214 211 205 200 191 180 180 184 186 185
117 108 100 91 82 77 71 67 63 59 57 54 55 52 44 47 47 50 71 79 71 63 63 84 98 90 86 80 74 78 71 65 78 129 198 194 196 195 189 196 201 201 200 201 204 206 209 217 212 207 213 223 225 226 232 240 246 248 250 258 267 279 255 229 216 207 209 216 218 222 238 242 239 239 239 232 223 218 216 213 209 203 187 176 181 189 191 187
137 127 112 97 85 79 73 63 56 52 48 46 51 47 40 44 45 53 71 78 68 51 52 78 93 94 92 82 82 91 78 64 77 79 171 190 195 197 194 204 207 206 206 207 208 211 213 207 197 206 218 228 232 232 232 227 232 246 263 267 274 286 275 257 243 220 210 221 225 221 234 251 245 240 239 233 224 220 220 218 215 207 192 184 183 184 185 182
158 151 130 108 95 85 72 57 49 44 38 40 46 42 41 45 46 64 73 74 65 51 55 69 78 91 92 92 95 91 73 71 84 72 116 175 193 207 207 217 214 210 212 212 214 218 221 216 193 198 217 231 237 241 234 218 226 250 272 276 275 278 269 257 251 226 206 223 230 222 226 258 258 245 238 233 229 226 227 227 222 213 203 194 188 184 183 179
176 172 157 133 118 93 72 54 40 34 31 35 42 41 50 49 43 66 75 71 57 47 54 63 68 76 82 92 92 80 83 92 87 49 43 167 203 215 221 226 214 213 215 214 219 226 228 227 215 204 217 229 237 245 237 223 235 250 257 288 295 278 267 252 242 232 223 235 236 225 229 253 271 258 242 235 234 232 231 230 227 220 213 203 195 190 188 183
192 186 179 164 147 113 79 51 29 25 26 33 41 43 54 56 49 59 70 72 40 34 45 60 63 64 75 84 70 66 89 82 68 72 6 226 200 205 218 186 170 186 205 209 218 227 223 226 224 220 225 232 237 247 245 232 233 239 239 273 315 279 258 244 233 233 236 248 248 225 221 239 269 267 253 239 237 236 233 229 226 222 218 212 203 196 192 188
205 194 190 184 170 142 90 47 23 16 19 33 46 48 51 60 56 54 64 62 33 25 33 52 56 54 70 62 32 56 95 63 56 91 110 204 184 189 177 155 153 171 202 214 222 220 198 210 218 220 226 235 239 247 254 240 228 235 250 260 283 301 248 228 225 229 236 255 258 235 218 219 267 276 261 241 238 239 239 235 231 226 222 219 211 204 197 191
213 203 198 193 182 159 108 52 14 7 11 19 47 60 55 62 70 53 55 28 22 24 27 25 22 46 75 277 312 343 64 31 43 72 41 155 168 170 161 162 172 213 238 249 240 224 217 220 222 218 219 228 234 241 254 238 225 235 253 250 252 299 214 215 227 228 233 258 265 252 230 212 259 290 263 233 233 250 282 255 243 236 229 225 219 211 204 196
221 210 201 194 189 174 139 84 356 360 2 347 23 88 66 60 70 63 47 16 19 21 22 8 339 306 264 251 254 281 296 288 271 240 197 167 172 178 185 192 205 228 247 265 254 218 218 230 229 218 214 219 231 240 240 224 222 230 240 236 219 130 140 184 216 216 220 242 260 248 220 205 229 268 283 242 255 275 277 268 262 256 240 230 225 218 209 202
227 215 204 197 193 184 174 180 257 279 338 338 276 203 157 60 62 60 45 25 16 14 14 13 7 338 291 227 202 302 298 270 296 115 210 212 185 185 198 200 205 227 241 239 238 228 226 233 227 217 218 225 236 231 194 188 209 219 219 214 198 141 152 192 193 217 234 228 224 194 180 208 236 253 276 282 280 277 270 264 262 263 254 234 225 221 216 208
232 219 209 203 199 193 189 193 215 220 205 267 251 219 205 158 72 64 51 27 11 15 20 21 22 21 51 94 102 54 56 187 128 92 214 217 179 180 206 211 221 242 256 240 256 276 222 211 216 221 225 229 236 226 197 188 200 210 209 205 199 171 168 199 202 237 246 222 229 222 196 232 255 266 274 270 273 282 275 268 262 257 249 227 215 217 217 214
236 222 214 209 206 200 192 195 206 208 209 233 233 222 202 155 118 83 49 27 21 28 24 24 32 59 97 99 98 65 64 114 112 114 199 167 118 120 178 210 226 239 256 252 276 314 224 189 203 220 228 229 230 231 227 219 209 207 209 212 216 216 213 208 204 213 135 126 190 205 210 238 250 254 255 248 274 298 297 283 267 249 229 207 204 210 213 214
238 226 216 212 211 204 195 198 201 207 216 231 263 246 204 151 122 76 39 24 29 33 18 15 30 68 123 124 116 81 68 109 124 145 153 135 113 98 95 86 79 86 79 216 333 337 307 153 179 214 226 230 229 226 231 226 208 205 208 217 227 231 236 225 174 185 148 118 157 194 221 239 233 244 262 277 294 300 295 282 260 234 216 205 205 207 208 211
239 230 216 213 214 205 198 200 197 206 216 211 234 222 167 139 114 68 46 33 31 30 21 355 358 54 112 140 146 114 84 126 143 135 132 137 129 105 91 78 66 61 56 52 57 15 347 113 129 212 214 212 222 215 215 214 205 200 204 220 234 236 239 233 140 164 171 180 197 206 233 252 254 265 265 266 291 308 288 268 251 229 219 216 216 211 208 209
241 233 219 214 215 206 199 202 200 203 206 195 186 162 135 125 106 79 55 41 33 26 31 46 35 47 77 109 144 135 104 137 148 136 130 134 129 113 97 81 63 53 47 42 51 23 7 91 79 51 195 193 196 203 214 220 214 201 201 218 233 239 242 230 157 149 182 227 231 219 241 259 259 262 252 251 273 298 287 257 243 227 221 223 227 224 215 210
243 235 224 217 216 208 202 203 206 205 201 197 193 170 139 130 108 88 73 51 36 25 43 58 48 40 47 57 142 159 143 153 163 153 142 137 129 115 94 77 60 49 41 32 31 14 10 45 43 12 188 191 189 189 200 208 213 214 210 217 226 234 238 217 188 181 205 228 254 229 245 261 261 262 268 267 263 269 276 235 228 224 221 226 232 234 226 215
247 237 228 221 217 210 205 206 212 213 208 211 214 200 176 166 142 98 101 68 38 30 40 43 39 40 40 38 117 172 168 175 180 172 160 153 144 128 92 74 48 36 27 15 11 5 10 24 16 46 166 178 175 179 188 192 198 208 214 217 220 225 235 231 218 211 209 216 220 230 231 250 273 285 314 334 191 155 114 222 218 216 220 226 227 232 235 220
251 240 231 225 219 213 208 210 214 217 217 222 226 224 215 203 201 205 145 82 37 29 36 36 35 40 42 51 106 153 163 176 184 185 187 183 168 159 146 107 17 8 358 352 354 358 9 17 23 126 161 166 169 181 189 189 186 188 205 216 214 214 223 234 226 216 220 222 196 242 232 190 274 317 13 24 123 150 164 193 206 215 222 229 224 223 231 223
252 241 233 228 222 215 213 214 218 221 221 227 229 229 233 224 211 222 232 181 28 357 22 17 7 20 57 150 161 158 157 167 182 190 196 194 183 177 190 242 307 334 335 322 319 335 351 360 11 131 167 159 165 183 188 185 180 177 198 212 209 208 212 226 225 214 222 236 215 246 265 178 264 298 14 13 143 176 189 170 183 201 215 231 228 224 227 224
249 239 233 231 226 220 216 216 220 222 221 227 230 229 234 228 215 218 229 208 228 256 271 297 309 340 47 155 165 165 160 165 180 184 184 187 188 187 196 228 314 335 323 301 293 303 299 323 359 126 157 133 142 174 182 187 191 193 207 220 214 213 216 228 240 210 213 228 229 237 238 247 268 283 332 333 239 184 186 176 183 197 206 224 231 231 233 229
240 234 231 232 230 224 217 217 221 221 219 224 229 230 234 230 221 222 232 237 240 241 249 263 268 275 267 153 165 182 172 161 169 171 165 169 175 172 169 237 337 337 325 309 294 287 273 296 353 127 143 113 101 142 170 187 199 201 216 231 227 225 225 232 247 223 209 220 219 224 218 238 268 282 303 294 213 182 183 186 194 203 208 226 238 241 241 238
230 231 231 231 231 226 217 216 221 222 222 224 226 231 235 234 230 229 236 248 244 231 240 252 252 251 253 234 211 205 186 166 161 164 163 162 160 149 140 323 340 342 335 332 312 283 256 254 277 204 160 140 121 122 142 172 191 190 207 228 229 234 233 233 241 238 222 220 217 231 233 218 259 279 263 191 182 177 184 192 197 197 195 232 266 265 258 253
224 229 233 232 232 228 220 219 223 225 226 226 227 232 235 234 233 230 235 247 238 223 231 242 240 245 257 256 231 207 205 205 185 171 172 169 159 154 214 319 335 338 337 349 359 309 204 205 235 247 218 184 168 168 113 125 158 156 141 236 231 230 229 230 233 231 227 222 211 209 210 221 241 247 166 170 166 169 184 191 192 187 133 29 356 333 288 266
222 225 231 234 236 233 228 226 227 230 232 230 233 240 237 232 227 223 230 237 224 221 235 245 242 240 243 240 228 214 213 210 195 186 188 181 171 185 235 317 331 332 335 355 31 82 166 170 189 216 216 191 115 113 75 78 87 78 51 24 247 229 226 224 222 224 227 222 210 210 222 235 228 173 160 171 164 170 187 188 184 174 124 7 326 350 7 311
225 220 223 227 234 237 236 234 234 237 238 236 239 245 236 225 217 215 225 230 222 229 247 248 241 237 228 223 225 216 199 195 196 194 195 187 178 182 188 243 313 313 323 343 39 127 172 152 149 164 156 107 102 103 91 82 70 54 42 37 29 248 232 220 215 220 224 214 210 219 225 223 198 175 171 170 170 179 189 185 168 154 169 262 276 298 31 43
236 222 219 219 222 228 233 236 238 241 243 241 242 245 237 221 212 213 224 228 228 239 250 248 244 239 226 216 219 214 196 193 201 197 194 190 180 173 167 176 256 254 267 336 66 146 191 156 139 139 127 107 106 107 92 73 55 41 35 35 34 30 357 223 218 219 215 213 224 229 220 204 187 176 165 162 169 176 181 166 129 125 172 231 134 168 130 84
254 233 224 221 221 223 227 233 236 238 240 242 244 246 237 219 211 215 224 226 232 241 247 250 247 232 219 214 218 223 216 212 213 210 214 210 197 194 190 187 224 234 194 101 86 116 183 162 138 130 127 121 120 121 106 63 30 16 19 25 25 25 28 17 254 221 210 214 226 222 207 192 179 168 161 161 163 165 162 134 114 120 146 129 117 140 158 130
266 250 236 227 225 224 225 228 231 233 235 238 242 243 235 221 214 217 221 224 233 241 242 244 237 218 216 223 231 241 248 251 251 246 242 234 222 217 211 200 201 197 179 188 219 56 180 175 165 153 141 136 141 148 152 152 5 1 8 13 12 13 20 20 12 259 212 196 186 186 181 172 165 162 159 154 154 153 143 124 119 126 131 117 121 143 160 160
269 263 252 239 231 228 227 226 227 231 233 233 235 237 231 222 218 218 220 223 230 238 237 234 230 224 227 236 246 265 277 276 274 272 258 242 230 220 214 203 195 193 189 197 215 233 200 192 197 194 180 171 173 172 176 194 236 328 353 1 0 2 5 12 23 25 35 154 151 159 167 163 161 159 153 151 153 149 139 131 129 134 138 127 128 145 159 168
269 266 261 253 243 235 231 228 227 229 232 230 229 230 227 223 220 219 220 220 222 227 229 228 232 241 250 257 266 278 282 274 269 267 250 233 217 207 209 203 196 196 197 203 211 207 200 200 204 203 200 206 210 209 214 229 248 266 273 291 315 336 345 352 15 32 45 122 152 170 175 165 158 155 153 155 157 150 144 144 141 143 152 150 147 152 160 174
Height
3155 3154 3154 3154 3153 3153 3153 3153 3153 3153 3153 3153 3153 3153 3153 3153 3153 3153 3154 3154 3154 3155 3156 3157 3158 3159 3160 3161 3162 3163 3164 3165 3165 3166 3166 3167 3168 3169 3170 3171 3173 3173 3174 3175 3175 3176 3177 3177 3177 3177 3177 3177 3177 3177 3177 3177 3176 3176 3175 3175 3176 3177 3178 3178 3179 3181 3182 3183 3184 3186 3187 3188 3189 3189 3190 3191 3192 3193 3193 3194 3195 3196 3197 3198 3199 3200 3200 3200
3155 3155 3154 3154 3153 3153 3153 3152 3152 3152 3152 3152 3152 3152 3152 3152 3152 3152 3153 3153 3154 3154 3155 3155 3156 3157 3159 3160 3161 3162 3163 3164 3164 3165 3165 3166 3167 3168 3169 3171 3172 3173 3174 3174 3175 3176 3177 3177 3177 3178 3178 3178 3177 3177 3177 3177 3177 3176 3176 3175 3176 3177 3178 3179 3180 3181 3183 3184 3185 3186 3187 3189 3190 3190 3191 3192 3193 3193 3194 3195 3195 3196 3197 3198 3199 3200 3201 3201
3155 3155 3154 3154 3153 3153 3152 3152 3152 3152 3152 3152 3152 3152 3152 3152 3152 3152 3152 3152 3153 3153 3154 3154 3155 3156 3157 3159 3160 3161 3162 3163 3163 3164 3164 3165 3166 3167 3168 3170 3171 3172 3173 3174 3175 3176 3176 3177 3177 3178 3178 3178 3177 3177 3177 3177 3177 3177 3177 3177 3177 3178 3179 3180 3181 3182 3183 3185 3186 3187 3188 3189 3190 3191 3192 3193 3194 3194 3195 3196 3197 3197 3198 3199 3200 3201 3201 3202
3156 3155 3155 3154 3154 3153 3152 3152 3152 3152 3151 3151 3151 3151 3151 3151 3151 3151 3152 3152 3152 3153 3153 3154 3154 3155 3156 3157 3159 3160 3161 3162 3162 3163 3163 3164 3165 3167 3168 3169 3170 3171 3172 3173 3174 3175 3176 3177 3177 3178 3177 3177 3177 3177 3176 3177 3177 3177 3177 3177 3178 3178 3179 3180 3180 3182 3184 3185 3186 3187 3188 3189 3191 3192 3193 3194 3195 3195 3196 3197 3198 3198 3199 3200 3201 3202 3202 3203
3156 3155 3155 3154 3154 3153 3153 3152 3152 3152 3151 3151 3151 3151 3151 3151 3151 3151 3151 3151 3152 3152 3152 3153 3153 3154 3155 3156 3157 3159 3160 3161 3161 3162 3163 3163 3164 3166 3167 3167 3169 3170 3172 3173 3174 3175 3176 3177 3177 3177 3177 3177 3177 3176 3176 3176 3177 3177 3177 3177 3178 3178 3179 3180 3180 3182 3184 3185 3186 3188 3189 3190 3191 3193 3194 3195 3195 3196 3196 3197 3198 3199 3200 3201 3202 3202 3203 3204
3156 3156 3155 3155 3154 3153 3153 3152 3152 3152 3151 3151 3151 3151 3151 3151 3151 3151 3151 3151 3151 3151 3152 3152 3152 3153 3154 3155 3156 3157 3159 3160 3160 3161 3162 3162 3164 3165 3165 3166 3168 3170 3171 3172 3174 3175 3176 3176 3177 3177 3177 3177 3177 3176 3176 3176 3176 3177 3177 3177 3177 3177 3178 3179 3180 3181 3183 3185 3186 3188 3189 3191 3192 3193 3194 3195 3196 3196 3197 3197 3198 3199 3200 3202 3203 3203 3204 3204
3157 3156 3155 3155 3154 3154 3153 3153 3152 3152 3152 3151 3151 3151 3151 3151 3151 3151 3151 3151 3151 3151 3151 3151 3152 3152 3153 3154 3155 3156 3157 3158 3159 3160 3161 3162 3162 3163 3164 3165 3167 3169 3170 3172 3173 3174 3176 3176 3176 3176 3177 3177 3177 3176 3176 3175 3175 3176 3176 3176 3176 3176 3177 3178 3179 3180 3182 3184 3186 3188 3190 3191 3193 3194 3195 3195 3196 3197 3197 3197 3198 3200 3201 3202 3204 3204 3205 3205
3157 3156 3156 3155 3155 3154 3154 3153 3153 3152 3152 3151 3151 3151 3151 3151 3151 3151 3151 3151 3151 3151 3151 3151 3151 3152 3152 3153 3154 3155 3156 3157 3158 3159 3160 3161 3161 3162 3163 3164 3166 3168 3169 3171 3173 3174 3175 3176 3176 3176 3176 3176 3176 3176 3175 3175 3174 3175 3175 3174 3173 3174 3174 3175 3177 3180 3182 3184 3186 3188 3190 3191 3193 3195 3196 3196 3197 3197 3198 3198 3199 3200 3202 3203 3204 3205 3205 3206
3157 3157 3156 3156 3155 3155 3154 3154 3153 3153 3152 3152 3151 3151 3151 3151 3151 3150 3150 3150 3151 3151 3151 3151 3151 3152 3152 3153 3153 3154 3155 3156 3157 3158 3159 3160 3161 3162 3162 3163 3165 3167 3168 3170 3172 3174 3175 3176 3176 3176 3176 3176 3176 3176 3175 3175 3174 3174 3173 3172 3172 3171 3172 3174 3176 3179 3181 3183 3185 3187 3189 3191 3193 3195 3196 3197 3197 3198 3199 3199 3200 3201 3202 3203 3204 3205 3206 3207
3158 3157 3156 3156 3155 3155 3154 3154 3153 3153 3152 3152 3151 3151 3151 3150 3150 3150 3150 3150 3150 3150 3151 3151 3151 3151 3152 3152 3153 3154 3155 3156 3157 3158 3159 3160 3161 3162 3162 3163 3164 3165 3167 3169 3172 3174 3174 3175 3175 3175 3176 3175 3175 3175 3175 3175 3174 3173 3172 3171 3171 3170 3171 3173 3175 3178 3181 3183 3185 3187 3189 3191 3193 3195 3196 3198 3198 3198 3199 3200 3201 3202 3203 3204 3205 3206 3207 3207
3158 3157 3156 3156 3155 3155 3154 3154 3153 3153 3152 3152 3151 3151 3150 3150 3150 3150 3150 3150 3150 3150 3150 3151 3151 3151 3152 3152 3152 3153 3155 3156 3157 3158 3159 3160 3161 3161 3162 3163 3164 3165 3166 3169 3172 3173 3173 3174 3174 3175 3175 3175 3175 3175 3175 3174 3173 3172 3171 3171 3171 3170 3170 3172 3175 3178 3181 3182 3184 3187 3189 3191 3193 3195 3196 3198 3199 3199 3200 3201 3202 3202 3203 3204 3205 3206 3207 3208
3158 3157 3156 3155 3155 3154 3154 3153 3153 3153 3152 3152 3151 3151 3150 3150 3150 3150 3150 3150 3150 3150 3150 3151 3151 3151 3152 3152 3153 3154 3155 3156 3157 3158 3159 3159 3160 3161 3162 3163 3164 3165 3166 3168 3170 3172 3173 3173 3173 3174 3175 3175 3175 3175 3174 3174 3173 3172 3172 3171 3171 3171 3171 3173 3175 3178 3181 3183 3184 3187 3190 3191 3193 3194 3196 3198 3199 3200 3200 3201 3202 3203 3203 3204 3205 3207 3208 3208
3158 3157 3156 3155 3154 3154 3153 3153 3153 3152 3152 3152 3151 3151 3150 3150 3150 3150 3150 3150 3150 3150 3150 3150 3151 3151 3152 3152 3153 3153 3154 3155 3156 3157 3158 3159 3160 3161 3162 3163 3164 3165 3167 3168 3169 3170 3171 3172 3173 3174 3175 3175 3175 3175 3174 3174 3173 3173 3172 3172 3172 3172 3173 3174 3176 3179 3181 3183 3185 3187 3189 3191 3192 3194 3196 3197 3199 3200 3201 3201 3202 3203 3204 3204 3205 3207 3208 3208
3158 3157 3156 3155 3154 3154 3153 3153 3152 3152 3152 3151 3151 3151 3151 3150 3150 3150 3150 3150 3150 3150 3150 3150 3151 3151 3152 3152 3153 3153 3154 3155 3156 3156 3157 3158 3159 3161 3161 3162 3164 3165 3167 3168 3169 3169 3170 3172 3173 3174 3175 3175 3175 3175 3175 3174 3174 3173 3173 3173 3173 3174 3175 3175 3177 3180 3181 3183 3185 3187 3189 3190 3192 3194 3195 3197 3199 3200 3201 3202 3202 3203 3204 3204 3205 3206 3208 3208
3158 3157 3156 3155 3154 3153 3153 3153 3152 3152 3152 3151 3151 3151 3151 3151 3150 3150 3150 3150 3150 3150 3150 3151 3151 3152 3152 3152 3153 3153 3154 3154 3155 3156 3157 3158 3159 3160 3161 3162 3163 3165 3166 3168 3169 3170 3171 3172 3173 3174 3175 3175 3175 3175 3175 3174 3174 3174 3174 3174 3174 3174 3176 3177 3178 3180 3182 3184 3186 3187 3189 3190 3192 3194 3195 3197 3198 3200 3201 3202 3203 3203 3204 3204 3205 3206 3207 3208
3158 3157 3156 3155 3154 3153 3153 3152 3152 3152 3151 3151 3151 3151 3151 3151 3151 3151 3150 3150 3151 3151 3151 3151 3152 3152 3153 3153 3153 3154 3154 3154 3155 3156 3157 3157 3158 3159 3161 3162 3163 3164 3166 3167 3169 3170 3171 3172 3173 3174 3174 3175 3175 3175 3175 3175 3174 3174 3174 3174 3175 3175 3176 3178 3179 3181 3183 3184 3186 3187 3188 3190 3192 3193 3195 3196 3198 3199 3200 3201 3202 3203 3204 3204 3205 3206 3207 3208
3158 3157 3156 3155 3155 3154 3153 3153 3152 3152 3152 3152 3152 3152 3152 3151 3151 3151 3151 3151 3151 3152 3152 3152 3152 3153 3153 3153 3154 3154 3154 3154 3155 3156 3157 3157 3158 3159 3160 3161 3163 3164 3166 3167 3169 3170 3171 3172 3173 3174 3174 3175 3175 3175 3176 3176 3175 3175 3174 3174 3175 3176 3177 3178 3180 3181 3182 3184 3185 3187 3188 3190 3191 3193 3195 3196 3197 3198 3200 3201 3202 3202 3203 3204 3205 3206 3207 3208
3159 3158 3157 3156 3155 3154 3154 3153 3153 3153 3153 3153 3153 3153 3153 3153 3152 3152 3152 3152 3152 3152 3152 3153 3153 3153 3154 3154 3154 3154 3154 3154 3155 3156 3157 3157 3158 3159 3160 3161 3163 3164 3166 3167 3168 3169 3171 3172 3173 3173 3174 3174 3175 3175 3176 3177 3176 3176 3175 3175 3175 3176 3178 3179 3180 3181 3183 3183 3185 3186 3188 3189 3191 3193 3194 3196 3197 3198 3199 3200 3201 3202 3203 3204 3205 3205 3206 3208
3159 3158 3158 3157 3156 3155 3155 3154 3154 3154 3154 3154 3154 3154 3154 3154 3153 3153 3152 3152 3153 3153 3153 3154 3154 3154 3155 3155 3155 3155 3155 3155 3155 3156 3157 3157 3158 3159 3160 3161 3163 3164 3166 3167 3168 3169 3170 3171 3172 3172 3173 3174 3175 3176 3176 3177 3176 3176 3176 3176 3176 3176 3178 3179 3180 3182 3183 3184 3185 3186 3187 3188 3190 3192 3194 3195 3196 3197 3198 3199 3200 3201 3202 3203 3205 3205 3206 3208
3160 3159 3159 3158 3157 3156 3156 3156 3155 3155 3155 3155 3155 3155 3155 3155 3154 3154 3153 3153 3153 3153 3154 3154 3154 3154 3155 3155 3155 3155 3155 3155 3156 3156 3157 3157 3158 3159 3160 3161 3163 3164 3165 3167 3168 3169 3170 3171 3171 3172 3174 3175 3176 3175 3176 3177 3177 3176 3177 3177 3177 3177 3179 3180 3181 3182 3183 3184 3185 3186 3187 3188 3190 3192 3193 3194 3196 3197 3197 3198 3199 3200 3201 3202 3204 3205 3206 3207
3161 3160 3160 3159 3158 3158 3157 3157 3157 3157 3156 3156 3156 3156 3156 3156 3155 3154 3154 3154 3154 3153 3154 3154 3155 3155 3155 3155 3156 3156 3156 3156 3156 3157 3157 3158 3158 3160 3161 3162 3163 3164 3165 3166 3167 3169 3170 3170 3170 3173 3175 3175 3175 3176 3176 3177 3177 3177 3177 3178 3178 3179 3179 3180 3181 3182 3183 3184 3185 3186 3187 3187 3189 3191 3192 3193 3194 3196 3197 3197 3198 3199 3200 3201 3203 3205 3206 3206
3162 3161 3161 3160 3159 3159 3159 3158 3158 3158 3157 3157 3157 3157 3157 3156 3156 3155 3155 3154 3154 3154 3154 3155 3155 3155 3156 3156 3156 3156 3156 3156 3157 3157 3157 3158 3159 3160 3161 3161 3163 3164 3165 3166 3167 3168 3169 3169 3171 3173 3174 3174 3175 3176 3176 3177 3177 3177 3178 3179 3179 3179 3180 3181 3182 3183 3183 3184 3185 3185 3186 3187 3188 3189 3191 3192 3193 3195 3196 3198 3199 3199 3200 3201 3202 3205 3206 3206
3162 3162 3161 3161 3161 3160 3160 3159 3159 3159 3158 3158 3158 3158 3157 3157 3157 3156 3155 3155 3155 3155 3156 3156 3156 3156 3156 3156 3156 3157 3156 3156 3157 3157 3158 3158 3159 3160 3160 3161 3162 3163 3165 3166 3167 3168 3169 3169 3171 3173 3174 3174 3175 3175 3176 3176 3177 3177 3178 3179 3180 3180 3181 3182 3182 3183 3184 3184 3185 3186 3187 3187 3187 3188 3189 3191 3192 3193 3195 3197 3198 3198 3199 3200 3202 3204 3205 3206
3163 3163 3162 3162 3162 3161 3161 3160 3160 3160 3159 3159 3158 3158 3158 3158 3157 3157 3156 3156 3156 3156 3156 3157 3157 3157 3157 3157 3157 3157 3157 3157 3157 3157 3158 3159 3159 3160 3161 3161 3162 3163 3164 3165 3166 3167 3169 3169 3171 3173 3173 3174 3175 3175 3175 3176 3177 3177 3178 3179 3180 3180 3181 3182 3182 3183 3184 3184 3185 3186 3187 3186 3186 3186 3187 3189 3190 3191 3193 3195 3196 3197 3198 3199 3200 3202 3204 3206
3163 3163 3163 3163 3162 3162 3162 3161 3161 3160 3160 3159 3159 3159 3159 3158 3158 3158 3157 3157 3157 3157 3157 3157 3157 3157 3157 3157 3157 3157 3157 3157 3158 3158 3158 3159 3160 3160 3161 3161 3162 3163 3164 3165 3166 3167 3168 3169 3171 3173 3173 3174 3174 3175 3176 3176 3177 3177 3178 3179 3180 3180 3181 3182 3183 3184 3184 3185 3185 3186 3187 3184 3184 3185 3186 3187 3188 3190 3191 3193 3194 3196 3197 3198 3198 3200 3203 3204
3163 3163 3163 3163 3163 3163 3162 3162 3161 3161 3161 3160 3160 3159 3159 3159 3159 3158 3158 3157 3158 3158 3158 3158 3158 3158 3158 3158 3158 3158 3158 3158 3158 3158 3159 3159 3160 3160 3161 3161 3162 3163 3164 3165 3166 3166 3168 3169 3171 3172 3173 3173 3174 3175 3176 3176 3177 3177 3178 3179 3180 3180 3180 3181 3182 3184 3185 3185 3184 3185 3186 3184 3182 3183 3184 3185 3187 3188 3189 3191 3192 3195 3196 3197 3198 3199 3201 3203
3163 3163 3163 3163 3163 3163 3163 3162 3162 3162 3161 3161 3160 3160 3159 3159 3159 3159 3158 3157 3158 3159 3159 3158 3158 3158 3158 3158 3159 3159 3159 3159 3159 3159 3159 3159 3160 3160 3161 3161 3162 3162 3163 3164 3166 3166 3167 3169 3170 3172 3172 3173 3173 3174 3175 3176 3177 3177 3177 3179 3179 3179 3180 3181 3182 3183 3184 3184 3184 3184 3185 3185 3182 3181 3182 3184 3185 3186 3187 3188 3190 3192 3194 3196 3197 3198 3200 3202
3163 3163 3163 3163 3163 3163 3163 3162 3162 3162 3161 3161 3161 3160 3160 3159 3159 3159 3158 3158 3160 3160 3160 3159 3159 3159 3159 3159 3159 3159 3159 3159 3159 3159 3159 3160 3160 3160 3161 3162 3162 3162 3163 3164 3165 3166 3166 3168 3169 3171 3171 3172 3172 3173 3174 3176 3177 3177 3177 3179 3179 3179 3179 3180 3181 3182 3183 3184 3184 3183 3185 3185 3181 3178 3180 3182 3183 3183 3183 3184 3187 3189 3192 3194 3196 3198 3199 3201
3162 3163 3163 3163 3163 3163 3163 3163 3162 3162 3162 3161 3161 3161 3160 3160 3160 3159 3158 3159 3161 3160 3160 3160 3160 3160 3160 3160 3160 3160 3160 3160 3160 3160 3159 3160 3160 3161 3161 3162 3162 3163 3163 3164 3165 3166 3166 3167 3168 3169 3170 3171 3171 3172 3173 3175 3176 3176 3177 3179 3180 3179 3180 3181 3181 3182 3183 3184 3182 3182 3184 3184 3180 3176 3178 3180 3180 3181 3181 3182 3184 3187 3190 3192 3195 3197 3198 3200
3162 3162 3162 3163 3163 3163 3163 3163 3163 3162 3162 3162 3161 3161 3160 3160 3160 3159 3159 3160 3161 3160 3160 3160 3160 3160 3160 3160 3160 3160 3160 3160 3160 3160 3160 3160 3160 3161 3161 3162 3162 3163 3163 3163 3164 3165 3166 3166 3167 3167 3169 3170 3171 3171 3171 3173 3175 3176 3178 3179 3180 3180 3180 3181 3181 3181 3183 3183 3181 3181 3181 3183 3180 3176 3176 3178 3178 3179 3180 3181 3183 3185 3187 3190 3192 3195 3197 3198
3161 3161 3162 3162 3163 3163 3163 3163 3163 3162 3162 3162 3161 3161 3161 3161 3160 3160 3161 3161 3161 3160 3160 3160 3159 3159 3159 3159 3159 3160 3160 3160 3160 3160 3160 3160 3160 3161 3161 3161 3162 3162 3163 3163 3163 3164 3164 3165 3165 3166 3168 3168 3169 3170 3170 3172 3173 3176 3178 3179 3180 3181 3181 3182 3182 3182 3182 3180 3180 3180 3180 3182 3181 3176 3175 3177 3177 3178 3179 3180 3181 3182 3184 3186 3189 3192 3195 3197
3160 3161 3161 3162 3162 3162 3163 3163 3162 3162 3162 3162 3161 3161 3161 3161 3161 3161 3161 3162 3161 3160 3160 3159 3159 3158 3158 3159 3159 3159 3159 3159 3159 3160 3160 3160 3160 3160 3161 3161 3161 3162 3162 3162 3162 3162 3163 3163 3164 3165 3166 3167 3168 3169 3170 3171 3173 3175 3177 3178 3179 3180 3182 3182 3182 3182 3181 3179 3179 3179 3180 3181 3178 3175 3175 3176 3176 3177 3177 3177 3178 3179 3181 3183 3186 3189 3192 3195
3159 3160 3160 3161 3161 3162 3162 3162 3162 3162 3162 3162 3161 3161 3161 3161 3162 3162 3162 3161 3161 3160 3160 3159 3158 3158 3158 3158 3158 3159 3159 3159 3159 3159 3159 3160 3160 3160 3160 3160 3161 3161 3161 3161 3161 3161 3161 3162 3163 3163 3164 3164 3166 3167 3168 3169 3171 3173 3176 3177 3177 3178 3180 3182 3181 3180 3178 3177 3178 3179 3180 3178 3174 3173 3174 3174 3174 3175 3174 3174 3175 3176 3178 3179 3182 3186 3189 3192
3158 3158 3159 3160 3160 3161 3161 3162 3162 3161 3161 3162 3161 3161 3161 3161 3162 3162 3161 3161 3161 3160 3159 3159 3158 3158 3158 3158 3158 3158 3158 3159 3159 3159 3159 3160 3160 3160 3160 3160 3160 3160 3160 3160 3160 3160 3160 3160 3161 3161 3161 3162 3164 3165 3166 3167 3169 3171 3173 3176 3175 3175 3177 3178 3176 3176 3176 3176 3178 3179 3179 3175 3173 3173 3173 3173 3174 3173 3173 3173 3173 3173 3175 3177 3180 3183 3186 3189
3156 3157 3158 3158 3159 3160 3161 3161 3161 3161 3161 3161 3161 3161 3161 3161 3161 3161 3161 3161 3160 3160 3159 3159 3158 3158 3157 3157 3158 3158 3158 3158 3159 3159 3160 3160 3160 3160 3160 3160 3160 3159 3159 3160 3160 3160 3159 3159 3159 3160 3160 3161 3162 3163 3164 3166 3167 3168 3172 3174 3174 3174 3174 3173 3173 3173 3174 3175 3177 3177 3175 3172 3172 3172 3172 3172 3173 3172 3172 3172 3172 3173 3174 3175 3177 3179 3182 3186
3155 3155 3156 3157 3158 3159 3160 3160 3161 3161 3161 3161 3161 3161 3161 3161 3161 3161 3161 3160 3160 3159 3159 3158 3158 3158 3157 3157 3157 3158 3158 3158 3159 3159 3160 3160 3160 3160 3160 3160 3160 3159 3159 3159 3159 3159 3159 3158 3158 3158 3158 3159 3160 3161 3162 3164 3165 3167 3171 3173 3173 3174 3174 3173 3173 3173 3174 3174 3174 3173 3172 3171 3172 3172 3171 3172 3172 3171 3171 3171 3172 3172 3173 3174 3175 3177 3180 3183
3154 3154 3155 3155 3156 3157 3159 3160 3160 3160 3160 3161 3161 3161 3160 3160 3160 3160 3160 3160 3159 3159 3159 3158 3158 3157 3157 3157 3157 3157 3158 3158 3159 3159 3160 3160 3160 3160 3160 3160 3160 3160 3159 3159 3159 3159 3158 3158 3158 3157 3157 3158 3159 3160 3161 3163 3164 3166 3168 3171 3173 3174 3174 3173 3173 3174 3174 3172 3171 3171 3171 3171 3171 3171 3170 3171 3171 3171 3170 3170 3171 3172 3172 3173 3174 3176 3179 3181
3152 3152 3153 3154 3155 3156 3158 3159 3159 3160 3160 3160 3160 3160 3160 3160 3160 3160 3159 3159 3159 3159 3159 3158 3158 3157 3157 3157 3157 3157 3157 3158 3159 3159 3159 3160 3160 3160 3160 3159 3160 3160 3159 3159 3159 3159 3158 3157 3157 3157 3156 3157 3158 3159 3161 3163 3165 3165 3167 3170 3172 3173 3173 3172 3172 3173 3173 3172 3170 3169 3169 3170 3170 3170 3170 3170 3170 3170 3169 3170 3170 3171 3172 3172 3173 3175 3176 3178
3151 3151 3152 3152 3154 3155 3157 3158 3158 3159 3159 3159 3159 3160 3160 3160 3160 3159 3159 3159 3159 3159 3159 3158 3158 3157 3157 3156 3156 3156 3157 3157 3158 3159 3159 3159 3159 3160 3160 3159 3159 3159 3159 3159 3159 3159 3158 3157 3157 3156 3156 3156 3157 3158 3159 3161 3163 3165 3166 3168 3169 3170 3171 3171 3170 3170 3170 3171 3170 3168 3168 3169 3168 3168 3169 3169 3169 3169 3169 3169 3170 3170 3171 3172 3172 3173 3175 3176
3149 3150 3150 3151 3152 3154 3155 3156 3157 3158 3158 3158 3158 3159 3159 3159 3159 3159 3159 3159 3158 3158 3158 3158 3158 3158 3157 3157 3156 3156 3156 3157 3157 3158 3158 3159 3159 3159 3159 3159 3159 3159 3159 3159 3159 3158 3158 3158 3157 3156 3156 3157 3157 3157 3158 3160 3161 3163 3164 3166 3167 3169 3170 3170 3169 3169 3168 3168 3168 3167 3167 3168 3168 3168 3169 3168 3168 3168 3168 3169 3170 3170 3171 3172 3172 3172 3174 3175
3148 3149 3149 3150 3151 3152 3154 3155 3156 3156 3157 3157 3157 3158 3158 3158 3158 3159 3158 3158 3158 3158 3158 3158 3158 3158 3157 3157 3156 3156 3156 3156 3157 3157 3158 3158 3158 3159 3159 3159 3159 3159 3158 3159 3159 3158 3159 3158 3157 3157 3156 3157 3157 3157 3158 3159 3160 3162 3163 3164 3165 3167 3169 3169 3167 3167 3167 3167 3167 3166 3167 3167 3167 3168 3169 3168 3168 3168 3168 3169 3169 3170 3171 3171 3172 3172 3173 3175
3147 3147 3148 3149 3150 3151 3152 3153 3154 3155 3155 3156 3156 3157 3157 3157 3158 3158 3158 3158 3158 3158 3158 3158 3158 3158 3157 3157 3156 3156 3156 3156 3157 3157 3157 3157 3158 3158 3158 3158 3158 3158 3158 3158 3158 3158 3159 3159 3158 3157 3157 3156 3156 3156 3157 3158 3159 3161 3163 3163 3164 3165 3167 3167 3166 3166 3166 3166 3166 3166 3166 3167 3167 3167 3169 3169 3168 3168 3168 3169 3169 3169 3170 3171 3171 3171 3172 3173
3146 3146 3147 3148 3148 3150 3151 3152 3152 3153 3154 3154 3155 3155 3156 3156 3156 3157 3157 3157 3157 3157 3157 3157 3157 3157 3157 3157 3156 3156 3156 3156 3156 3156 3157 3157 3157 3158 3158 3158 3158 3158 3158 3157 3157 3157 3158 3159 3159 3158 3157 3157 3157 3156 3157 3158 3159 3160 3161 3162 3163 3164 3165 3166 3165 3165 3165 3165 3165 3166 3166 3166 3166 3167 3168 3168 3168 3168 3169 3169 3169 3169 3170 3170 3171 3171 3172 3172
3144 3145 3146 3146 3147 3148 3149 3150 3151 3152 3152 3153 3153 3154 3154 3154 3155 3156 3156 3156 3156 3156 3156 3157 3157 3157 3157 3156 3156 3156 3156 3156 3156 3156 3156 3157 3157 3157 3157 3157 3157 3157 3157 3157 3157 3157 3157 3158 3159 3158 3158 3157 3157 3157 3157 3158 3159 3160 3160 3161 3162 3162 3163 3164 3164 3165 3164 3164 3165 3165 3164 3165 3165 3166 3167 3167 3167 3168 3168 3169 3169 3170 3170 3170 3171 3171 3172 3172
3143 3144 3144 3145 3146 3146 3147 3148 3149 3150 3150 3151 3152 3152 3153 3153 3154 3154 3155 3155 3155 3155 3156 3156 3156 3156 3156 3156 3156 3156 3156 3156 3156 3156 3156 3156 3157 3157 3157 3157 3157 3157 3157 3156 3156 3156 3156 3157 3158 3158 3157 3157 3157 3157 3157 3158 3159 3159 3160 3160 3160 3160 3161 3162 3163 3164 3163 3163 3164 3164 3164 3164 3165 3166 3166 3167 3167 3168 3168 3169 3169 3170 3171 3171 3171 3171 3171 3172
3142 3142 3143 3143 3144 3145 3145 3146 3147 3148 3149 3150 3150 3151 3151 3152 3152 3153 3153 3154 3154 3154 3155 3155 3155 3155 3155 3155 3155 3155 3155 3155 3156 3156 3156 3156 3156 3156 3156 3157 3157 3157 3156 3156 3156 3156 3156 3156 3157 3157 3157 3157 3157 3157 3158 3158 3158 3159 3159 3159 3159 3159 3159 3160 3161 3162 3162 3162 3163 3163 3163 3164 3164 3165 3166 3167 3167 3168 3168 3169 3170 3170 3171 3171 3170 3170 3170 3170
3140 3140 3141 3141 3142 3143 3143 3144 3145 3146 3147 3148 3149 3149 3150 3150 3151 3151 3152 3152 3153 3153 3154 3154 3154 3154 3154 3154 3154 3154 3155 3155 3155 3155 3155 3155 3156 3156 3156 3156 3156 3156 3156 3156 3156 3156 3156 3156 3156 3156 3157 3157 3157 3157 3158 3158 3159 3159 3160 3159 3158 3158 3158 3159 3159 3160 3161 3161 3162 3162 3163 3163 3164 3165 3166 3167 3167 3167 3167 3168 3170 3170 3170 3170 3169 3170 3170 3170
3138 3138 3139 3139 3140 3140 3141 3142 3143 3144 3145 3146 3147 3147 3148 3148 3149 3150 3150 3151 3152 3152 3153 3153 3153 3153 3153 3153 3154 3154 3154 3154 3155 3155 3155 3155 3155 3155 3155 3156 3156 3156 3156 3156 3156 3156 3156 3156 3155 3156 3156 3157 3157 3158 3158 3159 3159 3160 3160 3159 3159 3158 3157 3157 3158 3158 3159 3160 3160 3161 3162 3163 3163 3164 3165 3166 3166 3166 3167 3168 3169 3170 3169 3169 3169 3170 3170 3170
3136 3136 3137 3137 3138 3138 3139 3140 3141 3142 3143 3144 3145 3145 3146 3147 3147 3148 3149 3150 3150 3151 3151 3151 3152 3152 3152 3153 3153 3153 3153 3154 3154 3154 3154 3155 3155 3155 3155 3155 3155 3156 3156 3156 3156 3156 3157 3157 3156 3156 3156 3157 3157 3158 3158 3159 3160 3160 3160 3160 3159 3158 3157 3157 3157 3157 3158 3159 3159 3160 3161 3162 3163 3164 3165 3165 3166 3166 3167 3168 3169 3169 3168 3169 3169 3169 3169 3170
3134 3134 3134 3135 3135 3136 3137 3138 3139 3140 3141 3142 3143 3144 3144 3145 3145 3146 3147 3148 3148 3149 3150 3150 3150 3151 3151 3152 3152 3152 3153 3153 3153 3153 3154 3154 3154 3154 3155 3155 3155 3155 3155 3156 3156 3156 3156 3157 3157 3157 3157 3157 3157 3157 3158 3159 3160 3160 3160 3160 3160 3159 3158 3158 3158 3158 3158 3158 3159 3160 3160 3161 3163 3163 3164 3165 3165 3166 3167 3168 3168 3168 3168 3168 3169 3169 3169 3169
3132 3132 3132 3132 3133 3134 3135 3136 3137 3138 3139 3140 3141 3142 3142 3143 3143 3144 3145 3146 3147 3147 3148 3149 3150 3150 3150 3151 3151 3151 3151 3152 3152 3152 3152 3153 3153 3153 3154 3154 3154 3155 3155 3155 3156 3156 3156 3156 3156 3157 3157 3157 3157 3157 3157 3158 3159 3160 3161 3161 3160 3160 3160 3159 3159 3158 3158 3159 3159 3161 3161 3161 3162 3163 3164 3164 3165 3165 3167 3168 3168 3168 3167 3168 3169 3170 3170 3170
3130 3130 3130 3130 3130 3131 3132 3133 3134 3135 3136 3137 3139 3140 3140 3141 3141 3143 3143 3144 3145 3146 3147 3148 3149 3149 3149 3149 3150 3150 3150 3150 3151 3151 3151 3152 3152 3152 3153 3153 3153 3154 3154 3155 3155 3155 3156 3156 3156 3156 3157 3157 3157 3157 3157 3158 3159 3159 3160 3160 3160 3160 3160 3160 3159 3159 3159 3159 3160 3161 3161 3161 3161 3163 3163 3164 3164 3165 3166 3167 3167 3167 3167 3168 3169 3169 3169 3170